Weather History for San Carlos, CA

Change the Weather History Date:

Friday, November 23, 2012

  Actual Average Record
Temperature  
Mean Temperature 55 °F -  
Max Temperature 66 °F 61 °F 80 °F (1959)
Min Temperature 44 °F 42 °F 33 °F (1956)
Degree Days  
Heating Degree Days 10    
Growing Degree Days 5 (Base 50)    
Moisture  
Dew Point 46 °F    
Average Humidity 83    
Maximum Humidity 100    
Minimum Humidity 49    
Precipitation  
Precipitation 0.00 in - - ()
Sea Level Pressure  
Sea Level Pressure 30.23 in    
Wind  
Wind Speed 1 mph (SW)    
Max Wind Speed 7 mph    
Max Gust Speed -    
Visibility 10 miles    
Events      
Averages and records for this station are not official NWS values.
T = Trace of Precipitation, MM = Missing Value Source: NWS Daily Summary

Daily Weather History Graph

Daily Weather History Graph

Search for Another Location

Airport:

Trip Planner

Search our weather history database for the weather conditions in past years. The results will help you decide how hot, cold, wet, or windy it might be!

Date:

Astronomy

Nov. 23, 2012 Rise Set
Actual Time 6:57 AM PST 4:53 PM PST
Civil Twilight 6:29 AM PST 5:21 PM PST
Nautical Twilight 5:57 AM PST 5:53 PM PST
Astronomical Twilight 5:25 AM PST 6:25 PM PST
Moon 2:06 PM PST (11/23) 2:26 AM PST (11/23)
Length of Visible Light 10h 52m
Length of Day
9h 55m
Waxing Gibbous, 80% of the Moon is Illuminated
Nov 23
Waxing Gibbous
Nov 28
Full
Dec 6
Last Quarter
Dec 13
New
Dec 19
First Quarter

Hourly Weather History & Observations

Time (PST) Temp. Dew Point Humidity Pressure Visibility Wind Dir Wind Speed Gust Speed Precip Events Conditions
12:10 AM 48.2 °F 44.6 °F 87% 30.24 in 10.0 mi Calm Calm - N/A   Clear
12:30 AM 48.2 °F 46.4 °F 93% 30.24 in 10.0 mi Calm Calm - N/A   Clear
12:50 AM 48.2 °F 46.4 °F 93% 30.24 in 10.0 mi Calm Calm - N/A   Clear
1:10 AM 48.2 °F 44.6 °F 87% 30.24 in 10.0 mi Calm Calm - N/A   Clear
1:30 AM 48.2 °F 44.6 °F 87% 30.24 in 10.0 mi SSW 3.5 mph - N/A   Clear
1:50 AM 48.2 °F 44.6 °F 87% 30.23 in 10.0 mi SSW 3.5 mph - N/A   Clear
2:10 AM 48.2 °F 44.6 °F 87% 30.23 in 10.0 mi SW 3.5 mph - N/A   Clear
2:30 AM 46.4 °F 44.6 °F 93% 30.24 in 10.0 mi Calm Calm - N/A   Clear
2:50 AM 46.4 °F 44.6 °F 93% 30.24 in 10.0 mi Calm Calm - N/A   Clear
3:10 AM 46.4 °F 44.6 °F 93% 30.24 in 10.0 mi Calm Calm - N/A   Clear
3:30 AM 46.4 °F 44.6 °F 93% 30.24 in 10.0 mi Calm Calm - N/A   Clear
3:50 AM 46.4 °F 44.6 °F 93% 30.23 in 10.0 mi Calm Calm - N/A   Clear
4:10 AM 44.6 °F 44.6 °F 100% 30.23 in 10.0 mi Calm Calm - N/A   Clear
4:30 AM 46.4 °F 44.6 °F 93% 30.24 in 10.0 mi Calm Calm - N/A   Clear
4:50 AM 44.6 °F 44.6 °F 100% 30.24 in 10.0 mi Calm Calm - N/A   Clear
5:10 AM 46.4 °F 44.6 °F 93% 30.24 in 10.0 mi Calm Calm - N/A   Clear
5:30 AM 46.4 °F 44.6 °F 93% 30.25 in 10.0 mi Calm Calm - N/A   Clear
5:50 AM 46.4 °F 44.6 °F 93% 30.25 in 10.0 mi Calm Calm - N/A   Clear
6:10 AM 46.4 °F 44.6 °F 93% 30.25 in 10.0 mi Calm Calm - N/A   Clear
6:30 AM 46.4 °F 44.6 °F 93% 30.25 in 10.0 mi Calm Calm - N/A   Clear
6:47 AM 46.4 °F 44.6 °F 93% 30.25 in 10.0 mi Calm Calm - N/A   Scattered Clouds
6:50 AM 46.4 °F 44.6 °F 93% 30.25 in 10.0 mi Calm Calm - N/A   Clear
7:57 AM 48.2 °F 46.4 °F 93% 30.27 in 10.0 mi Calm Calm - N/A   Partly Cloudy
9:49 AM 55.4 °F 50.0 °F 82% 30.27 in 10.0 mi ENE 3.5 mph - N/A   Partly Cloudy
10:48 AM 57.2 °F 48.2 °F 72% 30.27 in 10.0 mi Calm Calm - N/A   Partly Cloudy
11:47 AM 60.8 °F 46.4 °F 59% 30.24 in 10.0 mi Calm Calm - N/A   Partly Cloudy
12:47 PM 62.6 °F 46.4 °F 55% 30.22 in 10.0 mi Calm Calm - N/A   Partly Cloudy
1:55 PM 66.2 °F 46.4 °F 49% 30.19 in 10.0 mi Calm Calm - N/A   Partly Cloudy
2:47 PM 66.2 °F 46.4 °F 49% 30.18 in 10.0 mi Variable 3.5 mph - N/A   Partly Cloudy
3:47 PM 64.4 °F 48.2 °F 56% 30.18 in 10.0 mi NNW 6.9 mph - N/A   Partly Cloudy
4:47 PM 64.4 °F 46.4 °F 52% 30.17 in 10.0 mi Calm Calm - N/A   Clear
5:47 PM 60.8 °F 48.2 °F 63% 30.17 in 10.0 mi Calm Calm - N/A   Clear
6:50 PM 57.2 °F 48.2 °F 72% 30.19 in 10.0 mi Calm Calm - N/A   Clear
7:47 PM 55.4 °F 48.2 °F 77% 30.20 in 10.0 mi Calm Calm - N/A   Clear
8:47 PM 53.6 °F 48.2 °F 82% 30.20 in 10.0 mi Calm Calm - N/A   Clear
9:10 PM 53.6 °F 48.2 °F 82% 30.21 in 10.0 mi Calm Calm - N/A   Clear
9:30 PM 53.6 °F 48.2 °F 82% 30.21 in 10.0 mi Calm Calm - N/A   Clear
9:50 PM 53.6 °F 48.2 °F 82% 30.21 in 10.0 mi Calm Calm - N/A   Clear
10:10 PM 53.6 °F 46.4 °F 77% 30.21 in 10.0 mi Calm Calm - N/A   Clear
10:30 PM 53.6 °F 48.2 °F 82% 30.20 in 10.0 mi Calm Calm - N/A   Clear
10:50 PM 50.0 °F 46.4 °F 87% 30.20 in 10.0 mi Calm Calm - N/A   Clear
11:10 PM 51.8 °F 46.4 °F 82% 30.21 in 10.0 mi Calm Calm - N/A   Clear
11:30 PM 51.8 °F 48.2 °F 88% 30.21 in 10.0 mi Calm Calm - N/A   Clear